This is the latest recevied weather packets stored in our database for station/object W6JCZ-13. If no packets are shown the sender has not sent any weather packets the latest 10 day(s).
| Time | Temp. | Humidity | Pressure | Rain* | Wind** | Luminosity | Snow |
|---|---|---|---|---|---|---|---|
| 1777869917 | 14.44° C | 69% | 1010.9 hPa | 0 mm | - | - | - |
| 1777869317 | 15° C | 68% | 1010.8 hPa | 0 mm | - | - | - |
| 1777868717 | 15° C | 67% | 1010.6 hPa | 0 mm | - | - | - |
| 1777868117 | 15° C | 67% | 1010.7 hPa | 0 mm | - | - | - |
| 1777867517 | 15.56° C | 66% | 1010.6 hPa | 0 mm | - | - | - |
| 1777866917 | 15.56° C | 66% | 1010.4 hPa | 0 mm | - | - | - |
| 1777866317 | 15.56° C | 65% | 1010.2 hPa | 0 mm | - | - | - |
| 1777865717 | 16.11° C | 65% | 1010.1 hPa | 0 mm | - | - | - |
| 1777865117 | 16.11° C | 64% | 1010 hPa | 0 mm | - | - | - |
| 1777864517 | 16.67° C | 64% | 1009.8 hPa | 0 mm | - | - | - |
| 1777863917 | 16.67° C | 63% | 1009.8 hPa | 0 mm | - | - | - |
| 1777863317 | 17.22° C | 63% | 1009.7 hPa | 0 mm | - | - | - |
| 1777862717 | 17.22° C | 62% | 1009.7 hPa | 0 mm | - | - | - |
| 1777862117 | 17.78° C | 62% | 1009.5 hPa | 0 mm | - | - | - |
| 1777861516 | 18.33° C | 61% | 1009.5 hPa | 0 mm | - | - | - |
| 1777860917 | 18.33° C | 60% | 1009.3 hPa | 0 mm | - | - | - |
| 1777860317 | 18.89° C | 59% | 1009.2 hPa | 0 mm | - | - | - |
| 1777859717 | 19.44° C | 58% | 1009.2 hPa | 0 mm | - | - | - |
| 1777859117 | 19.44° C | 57% | 1009.1 hPa | 0 mm | - | - | - |
| 1777858517 | 20° C | 56% | 1009 hPa | 0 mm | - | - | - |
| 1777857917 | 20.56° C | 55% | 1009 hPa | 0 mm | - | - | - |
| 1777857317 | 20.56° C | 54% | 1009 hPa | 0 mm | - | - | - |
| 1777856717 | 21.11° C | 54% | 1008.9 hPa | 0 mm | - | - | - |
| 1777856117 | 21.11° C | 54% | 1008.9 hPa | 0 mm | - | - | - |
| 1777855517 | 21.11° C | 54% | 1008.9 hPa | 0 mm | - | - | - |
* Rain latest hour (hover to see other rain measurements)
** Current wind speed in m/s (hover to see current wind gust speed)